Time,TemperatureF,DewpointF,PressureIn,WindDirection,WindDirectionDegrees,WindSpeedMPH,WindSpeedGustMPH,Humidity,HourlyPrecipIn,Conditions,Clouds,dailyrainin,SoftwareType,DateUTC
2013-06-29 00:06:00,71.3,56.0,29.68,NW,313,0.0,0.0,59,0.00,,,0.00,weatherlink.com 1.10,2013-06-29 05:06:00,
2013-06-29 00:21:00,70.5,57.0,29.67,NW,313,0.0,0.0,63,0.00,,,0.00,weatherlink.com 1.10,2013-06-29 05:21:00,
2013-06-29 00:36:00,69.5,57.0,29.67,NW,313,0.0,0.0,64,0.00,,,0.00,weatherlink.com 1.10,2013-06-29 05:36:00,
2013-06-29 00:51:00,68.5,57.0,29.67,NW,313,0.0,0.0,67,0.00,,,0.00,weatherlink.com 1.10,2013-06-29 05:51:00,
2013-06-29 01:06:00,67.9,57.0,29.67,NW,313,0.0,0.0,68,0.00,,,0.00,weatherlink.com 1.10,2013-06-29 06:06:00,
2013-06-29 01:21:00,67.1,57.0,29.67,NW,313,0.0,0.0,71,0.00,,,0.00,weatherlink.com 1.10,2013-06-29 06:21:00,
2013-06-29 01:36:00,66.5,57.0,29.66,NW,313,0.0,0.0,72,0.00,,,0.00,weatherlink.com 1.10,2013-06-29 06:36:00,
2013-06-29 01:57:00,66.1,57.0,29.66,NW,313,0.0,0.0,73,0.00,,,0.00,weatherlink.com 1.10,2013-06-29 06:57:00,
2013-06-29 02:06:00,66.2,57.0,29.66,NW,313,0.0,0.0,73,0.00,,,0.00,weatherlink.com 1.10,2013-06-29 07:06:00,
2013-06-29 02:21:00,66.3,57.0,29.66,NW,313,0.0,1.0,73,0.00,,,0.00,weatherlink.com 1.10,2013-06-29 07:21:00,
2013-06-29 02:36:00,66.2,57.0,29.66,WNW,288,0.0,2.0,73,0.00,,,0.00,weatherlink.com 1.10,2013-06-29 07:36:00,
2013-06-29 02:51:00,66.2,57.0,29.66,NW,309,0.0,4.0,73,0.00,,,0.00,weatherlink.com 1.10,2013-06-29 07:51:00,
2013-06-29 03:06:00,66.1,57.0,29.66,WNW,302,0.0,1.0,72,0.00,,,0.00,weatherlink.com 1.10,2013-06-29 08:06:00,
2013-06-29 03:21:00,66.0,58.0,29.66,WNW,302,0.0,0.0,74,0.00,,,0.00,weatherlink.com 1.10,2013-06-29 08:21:00,
2013-06-29 03:36:00,65.7,56.0,29.66,WNW,302,0.0,0.0,72,0.00,,,0.00,weatherlink.com 1.10,2013-06-29 08:36:00,
2013-06-29 03:51:00,65.8,57.0,29.66,WNW,303,0.0,1.0,72,0.00,,,0.00,weatherlink.com 1.10,2013-06-29 08:51:00,
2013-06-29 04:06:00,66.2,57.0,29.66,WNW,303,0.0,1.0,71,0.00,,,0.00,weatherlink.com 1.10,2013-06-29 09:06:00,
2013-06-29 04:21:00,65.9,57.0,29.66,WNW,303,0.0,2.0,72,0.00,,,0.00,weatherlink.com 1.10,2013-06-29 09:21:00,
2013-06-29 04:36:00,65.8,57.0,29.66,NW,322,0.0,1.0,72,0.00,,,0.00,weatherlink.com 1.10,2013-06-29 09:36:00,
2013-06-29 04:51:00,65.6,57.0,29.67,NW,319,0.0,2.0,73,0.00,,,0.00,weatherlink.com 1.10,2013-06-29 09:51:00,
2013-06-29 05:06:00,65.3,56.0,29.67,NW,319,0.0,2.0,73,0.00,,,0.00,weatherlink.com 1.10,2013-06-29 10:06:00,
2013-06-29 05:21:00,65.0,57.0,29.67,NW,315,0.0,1.0,74,0.00,,,0.00,weatherlink.com 1.10,2013-06-29 10:21:00,
2013-06-29 05:36:00,64.7,57.0,29.67,NW,316,0.0,1.0,75,0.00,,,0.00,weatherlink.com 1.10,2013-06-29 10:36:00,
2013-06-29 05:51:00,64.5,57.0,29.68,NW,313,0.0,1.0,76,0.00,,,0.00,weatherlink.com 1.10,2013-06-29 10:51:00,
2013-06-29 06:06:00,64.0,57.0,29.68,NW,313,0.0,0.0,77,0.00,,,0.00,weatherlink.com 1.10,2013-06-29 11:06:00,
2013-06-29 06:21:00,63.7,57.0,29.68,NW,313,0.0,1.0,78,0.00,,,0.00,weatherlink.com 1.10,2013-06-29 11:21:00,
2013-06-29 06:36:00,64.1,57.0,29.68,NW,313,0.0,3.0,77,0.00,,,0.00,weatherlink.com 1.10,2013-06-29 11:36:00,
2013-06-29 06:51:00,64.6,57.0,29.67,NW,315,0.0,2.0,77,0.00,,,0.00,weatherlink.com 1.10,2013-06-29 11:51:00,
2013-06-29 07:06:00,64.8,57.0,29.68,WNW,294,0.0,1.0,77,0.00,,,0.00,weatherlink.com 1.10,2013-06-29 12:06:00,
2013-06-29 07:21:00,65.0,58.0,29.68,WSW,256,0.0,1.0,78,0.00,,,0.00,weatherlink.com 1.10,2013-06-29 12:21:00,
2013-06-29 07:36:00,65.5,58.0,29.69,NW,315,0.0,2.0,78,0.00,,,0.00,weatherlink.com 1.10,2013-06-29 12:36:00,
2013-06-29 07:51:00,66.1,59.0,29.69,NNW,327,0.0,4.0,77,0.00,,,0.00,weatherlink.com 1.10,2013-06-29 12:51:00,
2013-06-29 08:06:00,67.0,59.0,29.68,North,360,2.0,4.0,75,0.00,,,0.00,weatherlink.com 1.10,2013-06-29 13:06:00,
2013-06-29 08:21:00,68.0,59.0,29.68,North,350,0.0,1.0,74,0.00,,,0.00,weatherlink.com 1.10,2013-06-29 13:21:00,
2013-06-29 08:36:00,69.0,60.0,29.68,North,351,0.0,3.0,72,0.00,,,0.00,weatherlink.com 1.10,2013-06-29 13:36:00,
2013-06-29 08:51:00,69.7,61.0,29.69,NW,322,0.0,4.0,73,0.00,,,0.00,weatherlink.com 1.10,2013-06-29 13:51:00,
2013-06-29 09:06:00,70.4,61.0,29.69,NNW,331,0.0,5.0,71,0.00,,,0.00,weatherlink.com 1.10,2013-06-29 14:06:00,
2013-06-29 09:21:00,71.1,61.0,29.69,NW,325,0.0,4.0,70,0.00,,,0.00,weatherlink.com 1.10,2013-06-29 14:21:00,
2013-06-29 09:36:00,71.7,61.0,29.68,NNW,336,0.0,7.0,70,0.00,,,0.00,weatherlink.com 1.10,2013-06-29 14:36:00,
2013-06-29 09:52:00,72.4,61.0,29.68,NNW,329,3.0,8.0,68,0.00,,,0.00,weatherlink.com 1.10,2013-06-29 14:52:00,
2013-06-29 10:07:00,73.1,61.0,29.68,NW,305,2.0,8.0,65,0.00,,,0.00,weatherlink.com 1.10,2013-06-29 15:07:00,
2013-06-29 10:22:00,73.5,60.0,29.67,NE,44,2.0,8.0,62,0.00,,,0.00,weatherlink.com 1.10,2013-06-29 15:22:00,
2013-06-29 10:37:00,73.9,59.0,29.68,NW,313,1.0,8.0,60,0.00,,,0.00,weatherlink.com 1.10,2013-06-29 15:37:00,
2013-06-29 10:52:00,74.4,59.0,29.67,NW,321,4.0,11.0,60,0.00,,,0.00,weatherlink.com 1.10,2013-06-29 15:52:00,
2013-06-29 11:07:00,74.8,59.0,29.68,NE,39,2.0,10.0,58,0.00,,,0.00,weatherlink.com 1.10,2013-06-29 16:07:00,
2013-06-29 11:22:00,75.4,58.0,29.67,NNE,12,3.0,10.0,55,0.00,,,0.00,weatherlink.com 1.10,2013-06-29 16:22:00,
2013-06-29 11:37:00,75.4,58.0,29.67,NE,35,4.0,12.0,55,0.00,,,0.00,weatherlink.com 1.10,2013-06-29 16:37:00,
2013-06-29 11:52:00,76.1,60.0,29.68,NW,325,0.0,6.0,58,0.00,,,0.00,weatherlink.com 1.10,2013-06-29 16:52:00,
2013-06-29 12:07:00,76.0,60.0,29.68,NNE,14,1.0,6.0,57,0.00,,,0.00,weatherlink.com 1.10,2013-06-29 17:07:00,
2013-06-29 12:22:00,76.2,59.0,29.68,ENE,59,2.0,9.0,55,0.00,,,0.00,weatherlink.com 1.10,2013-06-29 17:22:00,
2013-06-29 12:37:00,77.3,58.0,29.68,NNW,337,3.0,6.0,51,0.00,,,0.00,weatherlink.com 1.10,2013-06-29 17:37:00,
2013-06-29 12:52:00,77.2,60.0,29.68,NW,322,0.0,5.0,55,0.00,,,0.00,weatherlink.com 1.10,2013-06-29 17:52:00,
2013-06-29 13:07:00,77.8,59.0,29.67,NNE,19,6.0,7.0,53,0.00,,,0.00,weatherlink.com 1.10,2013-06-29 18:07:00,
2013-06-29 13:22:00,77.6,58.0,29.67,NNE,22,0.0,8.0,52,0.00,,,0.00,weatherlink.com 1.10,2013-06-29 18:22:00,
2013-06-29 13:37:00,78.3,60.0,29.67,NNE,15,0.0,7.0,53,0.00,,,0.00,weatherlink.com 1.10,2013-06-29 18:37:00,
2013-06-29 13:52:00,78.6,59.0,29.67,NE,36,0.0,10.0,51,0.00,,,0.00,weatherlink.com 1.10,2013-06-29 18:52:00,
2013-06-29 14:07:00,78.2,59.0,29.67,NNE,32,1.0,8.0,51,0.00,,,0.00,weatherlink.com 1.10,2013-06-29 19:07:00,
2013-06-29 14:22:00,78.3,60.0,29.67,NE,51,1.0,4.0,53,0.00,,,0.00,weatherlink.com 1.10,2013-06-29 19:22:00,
2013-06-29 14:37:00,78.7,59.0,29.66,NW,323,0.0,7.0,51,0.00,,,0.00,weatherlink.com 1.10,2013-06-29 19:37:00,
2013-06-29 14:52:00,78.7,59.0,29.66,NNW,344,0.0,5.0,51,0.00,,,0.00,weatherlink.com 1.10,2013-06-29 19:52:00,
2013-06-29 15:07:00,78.3,59.0,29.67,SW,224,1.0,6.0,52,0.00,,,0.00,weatherlink.com 1.10,2013-06-29 20:07:00,
2013-06-29 15:22:00,79.9,61.0,29.66,NW,325,0.0,9.0,52,0.00,,,0.00,weatherlink.com 1.10,2013-06-29 20:22:00,
2013-06-29 15:37:00,79.9,60.0,29.66,NE,36,0.0,8.0,50,0.00,,,0.00,weatherlink.com 1.10,2013-06-29 20:37:00,
2013-06-29 15:52:00,79.3,60.0,29.67,NE,46,1.0,5.0,51,0.00,,,0.00,weatherlink.com 1.10,2013-06-29 20:52:00,
2013-06-29 16:07:00,79.9,59.0,29.66,West,281,0.0,7.0,49,0.00,,,0.00,weatherlink.com 1.10,2013-06-29 21:07:00,
2013-06-29 16:22:00,80.2,60.0,29.66,North,360,4.0,7.0,50,0.00,,,0.00,weatherlink.com 1.10,2013-06-29 21:22:00,
2013-06-29 16:37:00,79.7,61.0,29.66,North,355,1.0,8.0,53,0.00,,,0.00,weatherlink.com 1.10,2013-06-29 21:37:00,
2013-06-29 16:52:00,79.0,63.0,29.67,NW,313,0.0,4.0,58,0.00,,,0.00,weatherlink.com 1.10,2013-06-29 21:52:00,
2013-06-29 17:07:00,78.7,61.0,29.67,NNE,15,0.0,6.0,55,0.00,,,0.00,weatherlink.com 1.10,2013-06-29 22:07:00,
2013-06-29 17:22:00,78.4,58.0,29.67,NE,46,0.0,6.0,50,0.00,,,0.00,weatherlink.com 1.10,2013-06-29 22:22:00,
2013-06-29 17:37:00,78.8,59.0,29.67,NE,38,3.0,3.0,51,0.00,,,0.00,weatherlink.com 1.10,2013-06-29 22:37:00,
2013-06-29 17:52:00,78.1,58.0,29.67,NE,40,0.0,4.0,51,0.00,,,0.00,weatherlink.com 1.10,2013-06-29 22:52:00,
2013-06-29 18:07:00,77.6,61.0,29.67,SE,132,0.0,1.0,56,0.00,,,0.00,weatherlink.com 1.10,2013-06-29 23:07:00,
2013-06-29 18:22:00,77.5,61.0,29.67,NW,318,1.0,4.0,58,0.00,,,0.00,weatherlink.com 1.10,2013-06-29 23:22:00,
2013-06-29 18:37:00,77.2,61.0,29.67,NW,309,1.0,1.0,58,0.00,,,0.00,weatherlink.com 1.10,2013-06-29 23:37:00,
2013-06-29 18:52:00,77.3,61.0,29.67,WSW,248,0.0,1.0,57,0.00,,,0.00,weatherlink.com 1.10,2013-06-29 23:52:00,
2013-06-29 19:07:00,76.9,59.0,29.67,NNW,335,0.0,1.0,55,0.00,,,0.00,weatherlink.com 1.10,2013-06-30 00:07:00,
2013-06-29 19:22:00,76.6,59.0,29.68,NNW,335,0.0,1.0,55,0.00,,,0.00,weatherlink.com 1.10,2013-06-30 00:22:00,
2013-06-29 19:37:00,76.3,58.0,29.67,NNW,335,0.0,1.0,54,0.00,,,0.00,weatherlink.com 1.10,2013-06-30 00:37:00,
2013-06-29 19:52:00,75.8,56.0,29.68,NNW,335,0.0,1.0,51,0.00,,,0.00,weatherlink.com 1.10,2013-06-30 00:52:00,
2013-06-29 20:07:00,75.1,57.0,29.68,NNW,335,0.0,1.0,54,0.00,,,0.00,weatherlink.com 1.10,2013-06-30 01:07:00,
2013-06-29 20:22:00,74.6,58.0,29.68,NNW,335,0.0,0.0,56,0.00,,,0.00,weatherlink.com 1.10,2013-06-30 01:22:00,
2013-06-29 20:37:00,74.0,58.0,29.68,NNW,335,0.0,0.0,58,0.00,,,0.00,weatherlink.com 1.10,2013-06-30 01:37:00,
2013-06-29 20:52:00,73.3,57.0,29.68,NNW,335,0.0,2.0,57,0.00,,,0.00,weatherlink.com 1.10,2013-06-30 01:52:00,
2013-06-29 21:07:00,72.3,58.0,29.69,NNW,335,0.0,0.0,60,0.00,,,0.00,weatherlink.com 1.10,2013-06-30 02:07:00,
2013-06-29 21:22:00,71.1,58.0,29.69,NNW,335,0.0,0.0,64,0.00,,,0.00,weatherlink.com 1.10,2013-06-30 02:22:00,
2013-06-29 21:37:00,70.1,58.0,29.69,NNW,335,0.0,0.0,66,0.00,,,0.00,weatherlink.com 1.10,2013-06-30 02:37:00,
2013-06-29 21:52:00,69.4,58.0,29.69,NNW,335,0.0,0.0,68,0.00,,,0.00,weatherlink.com 1.10,2013-06-30 02:52:00,
2013-06-29 22:07:00,68.6,58.0,29.70,NNW,335,0.0,0.0,70,0.00,,,0.00,weatherlink.com 1.10,2013-06-30 03:07:00,
2013-06-29 22:22:00,68.2,59.0,29.71,NNW,335,0.0,0.0,72,0.00,,,0.00,weatherlink.com 1.10,2013-06-30 03:22:00,
2013-06-29 22:37:00,68.0,58.0,29.71,NNW,335,0.0,0.0,71,0.00,,,0.00,weatherlink.com 1.10,2013-06-30 03:37:00,
2013-06-29 22:52:00,67.6,59.0,29.71,NNW,335,0.0,0.0,73,0.00,,,0.00,weatherlink.com 1.10,2013-06-30 03:52:00,
2013-06-29 23:07:00,67.4,58.0,29.72,NNW,335,0.0,0.0,73,0.00,,,0.00,weatherlink.com 1.10,2013-06-30 04:07:00,
2013-06-29 23:22:00,67.3,59.0,29.73,NNW,335,0.0,0.0,74,0.00,,,0.00,weatherlink.com 1.10,2013-06-30 04:22:00,
2013-06-29 23:37:00,66.9,58.0,29.72,NNW,335,0.0,0.0,74,0.00,,,0.00,weatherlink.com 1.10,2013-06-30 04:37:00,
2013-06-29 23:52:00,66.4,58.0,29.73,NNW,335,0.0,0.0,75,0.00,,,0.00,weatherlink.com 1.10,2013-06-30 04:52:00,